Temp
63 62 62 62 63 63 63 62 62 62 62 62 62 62 62 63 61 61 61 61 61 61 61 61 60 59 59 58 58 58 57 57 57 57 57 57 56 55 53 52 50 51
63 62 61 61 62 61 62 62 62 62 62 62 62 62 62 61 61 61 61 61 60 61 61 61 60 60 59 58 58 58 58 57 57 56 57 56 56 55 54 52 50 50
63 62 62 61 61 61 61 62 62 62 62 62 62 61 61 60 61 60 61 61 60 60 60 60 60 59 59 59 58 58 58 57 56 55 55 55 54 53 53 51 50 49
62 62 62 62 62 62 62 61 61 62 61 60 60 60 60 59 59 59 60 57 60 59 59 59 59 59 59 59 59 58 58 57 57 55 54 53 52 52 51 50 49 47
62 62 62 62 62 62 61 61 60 60 60 60 60 58 57 58 58 58 58 58 58 59 58 58 59 59 59 58 58 57 56 56 54 53 53 52 51 49 48 47 46 45
60 61 61 61 61 60 60 60 60 60 60 59 59 57 58 59 58 58 57 57 56 57 58 58 58 58 58 58 57 57 55 54 52 52 51 50 47 45 48 46 45 45
58 58 59 60 59 60 59 59 60 58 59 59 57 58 58 57 57 58 57 56 56 56 57 57 57 56 56 56 55 55 54 54 51 51 51 49 48 45 45 44 44 44
56 54 56 56 57 58 57 59 59 58 58 56 56 58 57 58 58 57 56 56 56 56 57 57 56 57 55 55 54 53 53 53 51 49 50 49 47 46 44 45 44 43
51 52 53 53 55 55 55 56 56 55 55 56 56 56 55 57 57 56 55 55 56 56 57 56 56 56 55 54 54 54 53 51 50 49 49 48 46 46 44 43 42 42
48 47 48 49 51 52 52 52 52 53 53 54 55 54 54 54 55 56 55 55 56 55 56 55 55 54 53 52 53 51 51 51 49 49 49 49 47 46 43 42 42 41
46 46 48 48 49 48 49 49 48 49 49 52 52 52 53 53 53 55 55 56 56 55 55 54 53 53 53 51 51 51 51 51 49 49 48 48 47 45 42 43 42 42
45 45 47 47 47 45 45 44 46 46 49 49 51 54 52 53 54 54 55 55 55 55 55 54 53 52 52 52 51 50 50 50 49 47 47 46 44 43 42 42 41 40
45 46 45 44 43 44 43 43 44 45 48 50 50 53 53 52 52 53 53 54 55 54 54 54 54 52 51 50 50 50 49 47 44 43 43 42 42 41 40 40 40 39
44 42 41 42 42 42 43 43 43 44 45 46 45 50 51 52 52 52 51 51 52 53 53 52 51 49 49 50 50 48 46 43 42 41 40 39 38 38 38 38 39 39
40 40 40 41 41 42 43 43 43 43 43 43 43 44 47 47 48 48 47 47 46 47 48 48 49 49 48 48 48 45 44 43 42 40 40 39 38 37 37 37 37 37
38 39 39 39 40 41 41 40 40 40 41 41 41 41 42 42 43 44 44 45 45 43 43 45 46 47 43 44 44 45 43 43 41 40 39 38 37 36 36 36 36 36
39 40 40 40 40 39 38 39 39 38 39 40 39 40 40 39 40 41 41 40 43 43 42 43 44 44 41 44 44 43 42 41 40 39 38 38 37 37 37 37 37 38
40 40 40 40 40 39 37 36 36 37 38 37 37 38 38 37 39 40 39 39 40 40 39 39 39 40 42 42 43 43 41 40 39 38 37 37 37 36 36 35 34 36
38 38 38 38 38 38 36 35 36 36 37 37 38 36 35 37 37 37 38 37 38 39 38 38 38 40 42 42 42 42 42 40 39 38 38 37 37 37 36 35 34 34
38 38 38 38 37 36 35 35 36 36 36 35 35 35 36 36 36 36 36 36 37 38 38 38 38 39 41 41 41 42 42 40 37 38 37 37 37 37 37 36 35 36
38 37 37 36 35 35 35 35 36 36 35 34 35 35 35 36 36 36 36 36 37 37 37 37 38 39 40 41 41 41 41 40 37 37 37 36 36 36 36 36 35 34
37 36 36 35 35 34 35 35 35 35 35 34 34 34 34 35 35 35 36 35 35 36 37 36 36 39 40 40 41 41 41 37 36 36 35 35 35 35 35 34 34 33
36 36 35 35 34 34 34 34 34 35 34 34 34 34 34 34 34 34 35 35 35 35 35 36 35 37 39 40 40 41 39 35 35 35 35 34 33 33 35 35 35 34
36 36 35 34 34 34 34 34 34 34 34 34 35 34 34 34 34 34 34 34 34 35 35 35 35 35 38 39 40 40 38 35 35 35 34 34 34 35 35 35 34 33
36 35 35 35 34 34 34 34 34 34 34 34 34 34 34 34 34 34 34 34 34 34 34 35 34 34 37 38 39 40 37 35 36 35 34 34 34 33 34 34 34 33
36 35 35 35 34 34 34 34 34 34 34 34 34 34 34 34 34 34 33 33 33 34 34 34 34 34 35 38 39 39 38 36 36 35 35 34 33 33 32 32 32 32
MSLP
1015.33 1015.55 1015.67 1015.85 1015.83 1015.89 1016.11 1016.35 1016.43 1016.63 1016.65 1016.75 1016.89 1016.79 1016.99 1016.95 1017.39 1017.61 1017.71 1017.93 1018.03 1018.15 1018.29 1018.47 1018.69 1018.93 1019.07 1019.29 1019.49 1019.67 1019.87 1019.99 1020.15 1020.29 1020.47 1020.65 1020.85 1021.05 1021.41 1021.69 1021.95 1022.03
1014.85 1015.05 1015.31 1015.51 1015.61 1015.65 1015.75 1015.93 1016.17 1016.37 1016.39 1016.51 1016.53 1016.67 1016.75 1016.95 1017.07 1017.29 1017.49 1017.63 1017.77 1017.89 1017.97 1018.19 1018.37 1018.55 1018.77 1019.03 1019.25 1019.47 1019.61 1019.73 1019.85 1020.01 1020.19 1020.41 1020.51 1020.81 1020.93 1021.17 1021.45 1021.81
1014.49 1014.75 1014.87 1015.01 1014.99 1015.17 1015.47 1015.71 1015.95 1016.03 1016.09 1016.09 1016.27 1016.33 1016.43 1016.61 1016.79 1016.93 1017.07 1017.23 1017.41 1017.55 1017.73 1017.87 1018.07 1018.23 1018.41 1018.59 1018.79 1019.01 1019.11 1019.31 1019.51 1019.79 1020.01 1020.17 1020.33 1020.55 1020.69 1020.95 1021.25 1021.53
1013.81 1013.91 1014.15 1014.35 1014.57 1014.79 1015.07 1015.45 1015.51 1015.53 1015.63 1015.79 1015.73 1015.85 1016.03 1016.19 1016.35 1016.53 1016.69 1016.87 1017.03 1017.21 1017.39 1017.57 1017.67 1017.85 1018.01 1018.17 1018.41 1018.57 1018.65 1018.77 1018.91 1019.33 1019.69 1019.99 1020.19 1020.25 1020.39 1020.67 1020.93 1021.39
1013.17 1013.51 1013.75 1013.91 1014.09 1014.37 1014.71 1014.93 1014.93 1015.01 1015.19 1015.15 1015.37 1015.51 1015.73 1015.85 1016.03 1016.21 1016.31 1016.49 1016.65 1016.81 1017.03 1017.19 1017.33 1017.49 1017.65 1017.85 1018.05 1018.25 1018.39 1018.53 1018.77 1019.09 1019.35 1019.63 1019.89 1020.11 1020.35 1020.69 1020.91 1021.11
1012.99 1013.09 1013.27 1013.49 1013.65 1014.01 1014.27 1014.29 1014.31 1014.53 1014.67 1014.87 1014.87 1015.21 1015.25 1015.39 1015.65 1015.73 1015.93 1016.13 1016.33 1016.47 1016.65 1016.83 1017.03 1017.15 1017.35 1017.53 1017.79 1017.91 1018.09 1018.35 1018.57 1018.75 1018.99 1019.27 1019.63 1019.93 1020.19 1020.55 1020.77 1020.95
1012.55 1012.73 1012.91 1013.09 1013.37 1013.53 1013.67 1013.75 1013.87 1014.11 1014.23 1014.35 1014.75 1014.79 1014.87 1015.13 1015.21 1015.33 1015.53 1015.75 1015.99 1016.19 1016.31 1016.53 1016.75 1016.97 1017.13 1017.33 1017.53 1017.67 1017.87 1017.99 1018.27 1018.47 1018.61 1018.97 1019.31 1019.85 1020.21 1020.49 1020.75 1020.93
1012.27 1012.53 1012.71 1012.91 1013.09 1013.21 1013.31 1013.41 1013.57 1013.75 1013.89 1014.21 1014.27 1014.21 1014.47 1014.59 1014.73 1014.91 1015.21 1015.47 1015.71 1015.91 1016.11 1016.29 1016.49 1016.67 1016.93 1017.15 1017.35 1017.51 1017.61 1017.77 1018.01 1018.25 1018.43 1018.67 1019.19 1019.53 1019.99 1020.19 1020.45 1020.75
1012.37 1012.51 1012.63 1012.79 1012.89 1012.97 1013.07 1013.17 1013.27 1013.45 1013.63 1013.75 1013.83 1013.95 1014.21 1014.25 1014.41 1014.69 1014.93 1015.21 1015.43 1015.63 1015.83 1016.03 1016.15 1016.33 1016.53 1016.71 1016.83 1017.05 1017.33 1017.71 1017.87 1018.01 1018.13 1018.45 1018.99 1019.17 1019.55 1019.99 1020.37 1020.69
1012.35 1012.53 1012.65 1012.71 1012.75 1012.79 1012.89 1012.97 1013.13 1013.23 1013.37 1013.49 1013.53 1013.75 1013.93 1014.11 1014.25 1014.39 1014.65 1014.89 1015.09 1015.29 1015.45 1015.67 1015.91 1016.11 1016.37 1016.61 1016.71 1016.79 1016.83 1016.97 1017.21 1017.51 1017.73 1017.87 1018.07 1018.57 1019.19 1019.65 1019.77 1020.37
1012.29 1012.61 1012.65 1012.71 1012.73 1012.83 1012.83 1012.95 1013.05 1013.13 1013.27 1013.31 1013.45 1013.59 1013.71 1013.91 1014.09 1014.19 1014.37 1014.53 1014.69 1014.93 1015.19 1015.39 1015.57 1015.77 1015.93 1016.09 1016.21 1016.41 1016.73 1017.03 1017.27 1017.41 1017.51 1017.55 1017.59 1018.05 1018.69 1019.07 1019.39 1019.59
1012.23 1012.39 1012.39 1012.47 1012.65 1012.81 1012.95 1013.09 1013.21 1013.27 1013.27 1013.27 1013.29 1013.33 1013.51 1013.67 1013.77 1013.95 1014.05 1014.21 1014.37 1014.55 1014.75 1014.95 1015.15 1015.35 1015.51 1015.69 1015.95 1016.23 1016.51 1016.65 1016.87 1017.17 1017.29 1017.49 1017.61 1018.09 1018.65 1019.03 1019.11 1019.43
1011.99 1012.03 1012.07 1012.21 1012.39 1012.53 1012.71 1012.83 1012.87 1012.91 1012.99 1012.99 1013.07 1013.09 1013.23 1013.45 1013.61 1013.71 1013.83 1013.93 1014.07 1014.27 1014.51 1014.71 1014.89 1015.07 1015.27 1015.47 1015.71 1016.03 1016.37 1016.75 1017.03 1017.29 1017.55 1017.77 1017.91 1018.17 1018.33 1018.67 1018.93 1019.21
1012.03 1012.11 1012.21 1012.31 1012.45 1012.57 1012.65 1012.71 1012.77 1012.85 1012.89 1012.99 1013.15 1013.11 1013.09 1013.25 1013.45 1013.61 1013.77 1013.89 1013.89 1014.01 1014.15 1014.37 1014.71 1015.05 1015.25 1015.43 1015.63 1015.95 1016.41 1016.77 1017.05 1017.35 1017.69 1017.99 1018.27 1018.55 1018.75 1018.93 1019.07 1019.25
1012.29 1012.35 1012.43 1012.51 1012.63 1012.71 1012.75 1012.81 1012.89 1012.93 1012.97 1013.05 1013.15 1013.21 1013.33 1013.31 1013.41 1013.59 1013.73 1013.99 1014.19 1014.31 1014.43 1014.59 1014.73 1014.87 1015.09 1015.31 1015.59 1015.95 1016.35 1016.69 1017.01 1017.33 1017.67 1018.03 1018.43 1018.81 1019.15 1019.37 1019.53 1019.59
1012.09 1012.29 1012.39 1012.57 1012.67 1012.73 1012.81 1012.91 1012.95 1012.97 1012.99 1013.01 1013.07 1013.27 1013.39 1013.51 1013.55 1013.69 1013.81 1013.91 1014.09 1014.33 1014.55 1014.73 1014.87 1014.95 1014.97 1015.11 1015.39 1015.75 1016.17 1016.49 1016.87 1017.17 1017.49 1017.89 1018.37 1018.81 1019.13 1019.41 1019.61 1019.73
1011.95 1012.01 1012.25 1012.45 1012.67 1012.87 1012.99 1012.99 1012.97 1013.03 1013.01 1013.11 1013.27 1013.41 1013.49 1013.65 1013.73 1013.75 1013.91 1014.11 1014.21 1014.33 1014.51 1014.73 1014.89 1015.01 1015.09 1015.23 1015.37 1015.71 1016.15 1016.57 1016.87 1017.27 1017.67 1017.95 1018.23 1018.45 1018.67 1019.05 1019.35 1019.59
1011.91 1012.11 1012.29 1012.45 1012.67 1012.83 1013.01 1013.13 1013.27 1013.27 1013.19 1013.29 1013.39 1013.41 1013.57 1013.77 1013.73 1013.89 1014.15 1014.41 1014.55 1014.71 1014.83 1015.01 1015.17 1015.31 1015.39 1015.55 1015.79 1015.99 1016.25 1016.57 1016.95 1017.29 1017.63 1017.87 1018.09 1018.35 1018.61 1018.95 1019.29 1019.59
1012.07 1012.21 1012.35 1012.51 1012.71 1012.89 1013.05 1013.21 1013.21 1013.19 1013.23 1013.37 1013.41 1013.93 1014.19 1014.17 1014.39 1014.53 1014.65 1014.89 1014.93 1014.93 1015.03 1015.25 1015.39 1015.51 1015.55 1015.65 1015.83 1016.03 1016.29 1016.61 1016.97 1017.21 1017.45 1017.69 1017.95 1018.21 1018.55 1018.95 1019.33 1019.63
1012.17 1012.29 1012.39 1012.55 1012.75 1013.03 1013.29 1013.39 1013.47 1013.53 1013.83 1014.13 1014.25 1014.37 1014.29 1014.43 1014.57 1014.57 1014.77 1014.83 1014.95 1015.01 1015.15 1015.39 1015.45 1015.55 1015.59 1015.71 1015.91 1016.15 1016.43 1016.69 1017.01 1017.29 1017.61 1017.95 1018.29 1018.65 1018.95 1019.17 1019.39 1019.67
1012.19 1012.39 1012.59 1012.79 1013.07 1013.29 1013.47 1013.55 1013.63 1013.79 1013.95 1014.19 1014.23 1014.21 1014.19 1014.21 1014.41 1014.49 1014.75 1014.95 1015.13 1015.25 1015.21 1015.23 1015.39 1015.55 1015.63 1015.81 1016.05 1016.29 1016.53 1016.83 1017.17 1017.49 1017.77 1018.05 1018.35 1018.57 1018.75 1018.91 1019.01 1019.07
1012.39 1012.59 1012.77 1013.07 1013.29 1013.49 1013.53 1013.55 1013.75 1013.89 1013.91 1014.25 1014.25 1014.41 1014.57 1014.67 1014.85 1014.95 1014.95 1015.03 1015.15 1015.17 1015.21 1015.19 1015.53 1015.67 1015.71 1015.87 1016.09 1016.33 1016.65 1017.05 1017.33 1017.59 1017.87 1018.09 1018.07 1018.09 1018.25 1018.47 1018.83 1019.21
1012.51 1012.65 1012.85 1013.11 1013.39 1013.47 1013.53 1013.61 1013.73 1013.91 1014.11 1014.37 1014.27 1014.49 1014.57 1014.69 1014.77 1014.87 1015.01 1015.03 1015.11 1015.19 1015.21 1015.29 1015.51 1015.71 1015.77 1015.89 1016.09 1016.33 1016.69 1017.15 1017.53 1017.87 1018.21 1018.55 1018.89 1019.09 1019.15 1019.29 1019.41 1019.55
1012.51 1012.67 1012.87 1013.19 1013.41 1013.37 1013.47 1013.79 1014.07 1014.25 1014.25 1014.45 1014.27 1014.47 1014.63 1014.87 1014.95 1015.05 1015.17 1015.19 1015.19 1015.25 1015.35 1015.35 1015.57 1015.79 1015.83 1015.87 1015.97 1016.13 1016.45 1016.87 1017.25 1017.55 1017.87 1018.17 1018.49 1018.71 1018.85 1018.97 1019.05 1019.15
1012.31 1012.59 1012.85 1013.15 1013.29 1013.47 1013.77 1013.95 1014.15 1014.27 1014.51 1014.61 1014.67 1014.79 1014.93 1015.07 1015.09 1015.11 1015.27 1015.33 1015.31 1015.27 1015.35 1015.39 1015.55 1015.73 1015.83 1015.89 1015.95 1016.03 1016.23 1016.47 1016.69 1016.99 1017.29 1017.63 1017.93 1018.19 1018.49 1018.65 1018.85 1018.99
1012.19 1012.33 1012.65 1012.99 1013.27 1013.69 1013.99 1014.15 1014.41 1014.51 1014.61 1014.65 1014.73 1014.77 1014.91 1014.99 1015.03 1015.05 1015.05 1015.19 1015.27 1015.27 1015.35 1015.41 1015.49 1015.67 1015.71 1015.71 1015.77 1015.89 1016.13 1016.39 1016.65 1016.87 1017.15 1017.55 1017.93 1018.17 1018.51 1018.75 1018.87 1019.01
Wind_Speed
12 11 13 12 13 12 12 12 11 11 11 10 11 11 11 11 8 10 11 10 11 12 11 11 10 10 10 9 9 9 8 10 9 8 10 10 9 10 10 9 7 8
14 13 11 11 11 11 11 11 11 10 11 10 10 9 8 8 9 9 10 11 11 11 11 10 10 11 10 9 9 10 9 9 10 7 9 11 10 10 10 10 9 7
13 13 14 15 14 13 12 10 10 10 10 10 9 9 8 7 8 9 10 10 11 11 11 10 10 10 10 10 10 11 11 10 10 8 8 10 9 9 8 7 7 8
16 16 15 15 14 13 11 10 11 11 10 9 10 9 9 8 8 9 10 10 10 10 10 10 11 10 11 11 11 10 11 11 10 9 9 7 7 8 8 7 7 6
15 13 13 13 12 11 10 11 13 12 11 11 8 8 7 8 8 9 10 9 10 10 9 10 10 10 10 10 10 10 10 10 9 9 10 10 8 7 6 6 7 8
9 11 12 12 11 11 11 13 13 11 11 10 11 7 9 9 9 10 10 10 9 10 10 10 10 10 10 10 10 10 9 9 8 10 9 9 7 6 6 8 8 9
11 10 11 10 10 11 12 12 11 10 11 10 6 10 9 9 10 11 10 10 10 10 11 10 10 9 8 9 9 10 9 11 10 10 11 9 9 8 6 7 8 8
9 6 7 7 9 10 11 11 10 10 9 7 10 11 10 11 12 10 9 9 10 10 10 10 10 11 10 9 9 10 10 9 8 9 10 9 8 10 9 8 8 9
5 6 6 7 9 8 9 10 9 8 8 10 10 9 8 10 10 9 9 9 9 10 10 10 11 11 10 11 12 13 12 10 8 10 11 11 11 11 10 8 7 7
5 4 5 6 7 8 8 8 8 8 7 9 9 7 9 8 7 9 8 9 10 10 10 10 11 10 9 9 10 8 7 9 9 10 11 13 13 12 10 10 11 9
6 6 7 7 8 6 7 6 6 7 6 8 7 7 7 7 7 7 9 10 11 11 10 9 8 9 11 10 8 8 9 9 10 11 12 12 12 11 11 11 11 11
5 5 6 6 6 5 5 4 5 5 5 6 6 8 7 7 8 8 9 10 10 10 10 11 11 9 8 9 10 9 8 9 10 10 10 9 8 8 9 10 11 10
6 6 6 5 4 4 3 3 4 5 6 6 6 7 7 8 7 8 8 9 10 9 9 9 10 11 9 7 6 7 9 9 8 7 6 6 5 7 9 9 9 9
5 4 4 3 3 2 3 3 3 2 3 3 2 5 7 7 7 7 6 5 6 7 9 8 6 6 6 8 9 8 8 7 7 7 6 4 4 4 5 7 7 8
4 4 3 3 2 2 1 1 2 2 1 1 2 2 2 3 4 4 4 4 3 3 3 4 5 7 7 7 8 7 7 8 8 7 7 6 5 4 4 4 5 5
4 4 4 3 2 1 0 1 1 1 2 2 2 2 2 1 2 2 4 5 5 4 3 3 4 4 8 12 10 8 8 7 7 7 8 7 7 7 6 6 7 7
4 4 3 2 1 1 0 1 1 1 2 2 3 3 3 3 3 4 4 4 5 5 5 5 4 5 7 10 11 11 8 6 7 7 6 6 7 9 10 9 8 7
3 3 3 3 1 2 2 1 2 3 3 3 3 2 1 1 1 2 1 1 1 1 3 3 3 4 6 7 8 10 9 7 5 6 7 7 7 8 8 7 7 7
3 3 3 3 4 4 3 2 1 0 0 0 1 1 2 2 1 1 1 1 1 2 3 3 3 3 6 8 9 11 11 8 6 6 8 8 8 8 7 7 6 5
5 5 5 4 4 3 3 2 2 1 1 1 2 3 2 2 2 2 1 2 2 3 2 1 2 3 6 8 9 9 9 8 5 6 5 4 4 3 3 3 4 5
5 4 4 3 2 2 2 2 2 1 1 1 2 2 2 1 1 1 1 1 1 1 2 2 2 2 5 7 8 9 10 8 5 5 5 5 5 5 5 6 9 10
4 3 3 2 2 2 2 2 3 3 3 2 2 2 2 2 2 2 2 1 1 2 2 3 0 2 5 7 9 9 10 6 5 5 5 6 8 8 8 6 5 6
4 4 4 3 3 3 3 3 3 3 3 3 3 2 3 2 2 2 2 2 2 2 3 2 1 1 5 7 9 10 8 4 3 3 2 1 0 1 1 2 3 3
5 5 5 4 4 4 4 3 2 2 2 2 4 3 3 2 2 2 2 2 2 2 2 2 1 1 4 7 10 12 9 6 5 5 4 4 4 4 5 5 7 10
7 6 5 5 5 4 4 3 3 3 2 2 3 3 3 3 3 3 2 2 2 3 4 3 2 2 3 5 8 10 9 6 6 6 6 6 6 6 5 5 5 7
6 7 7 6 5 3 3 3 3 3 3 3 3 3 4 3 3 3 4 2 2 3 3 3 4 3 4 7 8 10 10 6 4 5 6 5 4 5 5 3 5 5
Wind_Direction
215 212 216 216 221 222 222 222 222 222 223 222 222 225 221 225 215 212 216 216 216 217 216 215 210 209 206 202 202 201 200 204 205 199 200 200 206 198 199 201 198 201
216 214 216 219 224 223 224 222 224 224 228 226 228 229 227 220 216 212 214 215 216 218 217 215 211 209 205 201 199 200 204 203 207 195 200 202 207 201 203 195 197 199
216 214 215 216 220 222 221 220 223 227 227 227 226 222 223 212 213 209 213 213 214 217 216 213 211 208 205 204 199 201 203 202 204 193 200 207 200 196 202 189 194 192
215 214 215 219 220 222 217 216 222 225 224 224 221 215 211 208 206 206 211 209 212 213 213 210 211 207 206 205 201 206 205 204 200 184 194 201 203 200 196 185 188 188
214 216 217 219 220 220 214 217 221 220 219 224 221 210 204 206 202 207 208 208 209 211 207 211 210 208 205 205 202 206 205 204 194 184 191 197 194 188 189 176 183 191
217 217 216 217 216 212 215 219 221 217 219 219 219 203 212 207 206 209 207 207 207 207 207 208 208 209 203 204 200 207 201 201 193 184 186 191 193 194 179 187 187 192
215 210 213 212 211 211 215 220 221 217 218 218 201 215 207 208 212 212 210 209 205 206 207 206 205 206 204 202 203 206 204 202 190 188 188 195 186 193 187 182 187 187
218 208 208 203 207 211 216 218 219 217 214 204 210 216 202 211 213 212 208 205 205 207 209 207 206 207 203 205 207 210 207 201 188 189 195 195 187 195 190 188 184 188
212 211 206 207 209 214 217 217 218 216 205 209 215 214 207 212 212 207 204 201 204 206 207 208 207 208 205 204 202 199 199 200 195 192 194 194 193 199 192 178 172 184
220 220 211 216 218 220 220 219 216 215 208 215 216 208 207 213 208 205 200 199 204 205 205 205 205 201 196 202 209 211 213 202 194 198 203 201 196 192 184 178 180 173
214 204 207 214 220 222 228 226 225 220 212 215 211 210 209 202 207 200 199 199 201 201 204 207 205 200 200 197 194 194 201 207 209 210 210 207 198 190 183 181 177 182
191 186 197 202 202 207 218 223 230 227 219 221 205 208 204 201 197 198 197 200 202 202 200 203 202 196 192 196 201 205 212 215 215 215 215 208 187 180 176 182 178 179
186 190 184 181 179 190 192 193 202 207 202 209 202 200 196 197 200 199 201 200 203 201 202 200 204 205 205 203 202 203 207 210 208 202 199 203 194 185 179 180 180 175
198 183 177 179 176 180 203 219 228 217 209 205 199 207 191 193 196 199 212 215 213 206 208 204 194 189 195 203 202 200 200 202 193 190 187 185 176 177 180 184 180 175
183 181 150 149 162 170 197 234 237 243 243 212 173 213 230 203 193 200 193 208 231 228 225 213 204 203 201 199 199 197 190 192 184 179 179 177 172 167 166 178 184 182
165 145 134 115 104 127 188 200 202 187 174 179 196 207 205 186 179 187 184 197 208 223 215 205 215 215 204 201 195 192 189 187 179 183 181 174 168 170 176 185 193 191
142 145 133 138 137 103 95 170 187 156 157 170 177 171 171 161 161 175 192 199 207 210 212 212 219 224 215 200 192 181 175 177 183 183 175 172 176 180 189 188 191 191
157 149 169 197 198 226 214 184 150 154 158 163 159 159 157 110 142 190 173 159 157 166 202 219 231 217 184 190 187 183 178 179 175 169 172 179 184 189 188 182 182 180
186 191 199 201 213 215 200 166 141 64 59 77 123 83 86 96 91 92 92 76 126 176 217 228 233 229 200 194 190 185 181 170 174 177 180 188 185 184 181 180 176 180
189 191 197 203 201 191 164 171 153 166 132 57 70 68 79 83 95 114 116 145 171 193 215 250 227 233 192 190 190 183 173 168 169 173 175 175 173 159 157 167 173 169
185 184 191 186 168 149 142 152 162 123 101 92 102 109 115 116 119 134 130 141 146 146 161 196 221 192 187 180 176 171 167 161 156 154 158 154 136 138 148 168 182 190
166 167 160 145 138 127 137 149 135 143 143 129 116 111 107 111 89 96 117 109 109 133 159 221 265 175 180 176 170 169 161 149 154 160 161 163 181 190 190 187 170 176
155 153 149 144 141 143 156 163 163 147 141 141 128 125 118 111 125 128 137 139 143 157 175 193 142 158 179 172 169 166 154 149 141 134 139 177 28 40 108 138 176 172
151 150 149 146 151 171 176 165 134 119 135 146 144 143 133 135 133 99 81 115 143 152 164 178 148 154 179 181 174 172 159 151 143 143 136 141 142 162 173 178 185 179
152 149 151 155 168 177 165 161 163 155 130 112 103 108 111 114 111 112 104 97 128 146 137 143 130 120 163 177 177 174 158 152 155 160 166 171 171 183 186 184 182 182
157 156 155 159 165 149 138 140 127 115 127 121 114 121 126 130 130 136 142 157 160 147 141 144 138 142 159 168 173 176 165 156 156 162 184 177 176 180 183 195 188 190